EW9729 Weather Reports


time (UTC)temp
C
wind
direction
speed
KPH
gust
KPH
rain 1hr
cm
rain 24hr
cm
rain mn
cm
humidity
%
barometer
mb
20260506112516 13 338 4.8 8.0 0.00 0.03 0.00 78 1013.0
20260506111516 13 0 8.0 24.1 0.00 0.03 0.00 78 1012.6
20260506110517 14 23 3.2 6.4 0.00 0.03 0.00 77 1012.5
20260506105516 14 338 3.2 6.4 0.00 0.03 0.00 77 1012.3
20260506104516 14 68 6.4 12.9 0.00 0.03 0.00 76 1012.0
20260506103516 14 338 8.0 12.9 0.00 0.03 0.00 77 1011.9
20260506102516 14 23 9.7 16.1 0.00 0.03 0.00 76 1011.7
20260506101516 15 23 9.7 22.5 0.00 0.03 0.00 76 1011.5
20260506100518 15 338 3.2 9.7 0.00 0.03 0.00 76 1011.4
20260506095516 15 293 6.4 16.1 0.00 0.03 0.00 77 1011.5
20260506094518 15 0 6.4 9.7 0.00 0.03 0.00 76 1011.2
20260506093538 15 23 8.0 11.3 0.00 0.03 0.00 76 1011.3
20260506092518 15 315 3.2 4.8 0.00 0.03 0.00 77 1011.2
20260506091538 15 0 4.8 9.7 0.00 0.03 0.00 76 1011.1
20260506090518 15 338 3.2 6.4 0.00 0.03 0.00 75 1011.0
20260506085518 15 23 1.6 3.2 0.00 0.03 0.00 75 1010.9
20260506084518 15 45 1.6 3.2 0.00 0.03 0.00 76 1010.8
20260506083518 15 23 6.4 8.0 0.00 0.03 0.00 76 1010.4
20260506082518 15 0 3.2 8.0 0.00 0.03 0.00 75 1010.4
20260506081518 15 0.0 0.0 0.00 0.03 0.00 76 1010.6
20260506080518 15 23 3.2 6.4 0.00 0.03 0.00 76 1010.3
20260506073518 15 0 4.8 6.4 0.00 0.03 0.00 76 1010.7
20260506072518 15 0 3.2 8.0 0.00 0.03 0.00 76 1010.6
20260506071517 16 0 8.0 16.1 0.00 0.03 0.00 76 1010.7
20260506070558 16 0 11.3 20.9 0.00 0.03 0.00 77 1010.6
20260506061517 17 338 8.0 12.9 0.00 0.03 0.00 78 1010.4
20260506060517 17 68 6.4 11.3 0.00 0.03 0.00 78 1010.3
20260506050518 18 315 4.8 12.9 0.00 0.03 0.00 77 1010.1
20260506044518 19 0 6.4 11.3 0.00 0.03 0.03 77 1009.9
20260506043518 20 338 4.8 11.3 0.00 0.03 0.03 77 1009.7
20260506042517 20 338 6.4 11.3 0.00 0.03 0.03 77 1009.7
20260506041516 21 0 4.8 14.5 0.00 0.03 0.03 76 1009.3
20260506040517 21 0 8.0 16.1 0.00 0.03 0.03 76 1009.4
20260506035518 21 248 4.8 9.7 0.00 0.03 0.03 76 1009.5
20260506034537 21 338 3.2 4.8 0.00 0.03 0.03 76 1009.1
20260506033517 21 0 3.2 8.0 0.00 0.03 0.03 75 1009.1
20260506032518 22 0 3.2 8.0 0.00 0.03 0.03 76 1008.8
20260506031537 22 23 8.0 14.5 0.00 0.03 0.03 75 1009.0
20260506030517 23 338 9.7 17.7 0.00 0.03 0.03 75 1008.6
20260506025537 23 0 6.4 12.9 0.00 0.03 0.03 75 1008.2
20260506024557 23 338 4.8 6.4 0.00 0.03 0.03 74 1007.9
20260506023518 23 338 1.6 4.8 0.00 0.03 0.03 74 1007.4
20260506022517 23 0 3.2 4.8 0.00 0.03 0.03 75 1007.2
20260506021518 23 315 6.4 12.9 0.00 0.03 0.03 75 1007.2
20260506020517 23 0 6.4 9.7 0.00 0.03 0.03 76 1006.8
20260506015538 23 338 3.2 8.0 0.00 0.03 0.03 75 1006.9
20260506014517 23 0 6.4 14.5 0.03 0.03 0.03 75 1006.7
20260506013517 24 338 3.2 6.4 0.03 0.03 0.03 75 1006.7
20260506012517 25 248 3.2 4.8 0.03 0.03 0.03 82 1006.9
20260506011537 25 225 1.6 3.2 0.03 0.03 0.03 82 1006.2
20260506010517 25 135 1.6 1.6 0.03 0.03 0.03 83 1005.9
20260506005518 25 0.0 0.0 0.03 0.03 0.03 83 1006.3
20260506004517 26 0.0 1.6 0.00 0.00 0.00 82 1006.3
20260506003517 26 0.0 1.6 0.00 0.00 0.00 81 1006.2
20260506002517 26 113 3.2 4.8 0.00 0.00 0.00 82 1005.9
20260506001538 27 113 3.2 3.2 0.00 0.00 0.00 76 1005.8
20260506000518 27 158 1.6 1.6 0.00 0.00 0.00 75 1005.4
20260505235517 27 180 1.6 3.2 0.00 0.00 0.00 73 1005.1
20260505234517 28 135 4.8 9.7 0.00 0.00 0.00 72 1005.4
20260505233537 28 203 3.2 6.4 0.00 0.00 0.00 71 1005.3
20260505232517 28 135 1.6 4.8 0.00 0.00 0.00 71 1005.2
20260505231518 29 90 1.6 4.8 0.00 0.00 0.00 69 1005.4
20260505230517 30 113 4.8 6.4 0.00 0.00 0.00 68 1005.2
20260505225517 29 248 3.2 6.4 0.00 0.00 0.00 69 1005.1
20260505224517 30 158 1.6 3.2 0.00 0.00 0.00 68 1005.0
20260505223517 30 158 3.2 4.8 0.00 0.00 0.00 67 1004.9
20260505222517 30 225 4.8 4.8 0.00 0.00 0.00 68 1005.0
20260505221537 30 180 3.2 8.0 0.00 0.00 0.00 67 1005.0
20260505220517 30 113 1.6 4.8 0.00 0.00 0.00 66 1004.9
20260505215517 30 180 3.2 4.8 0.00 0.00 0.00 68 1004.9
20260505214537 30 203 4.8 9.7 0.00 0.00 0.00 67 1005.1
20260505213517 30 225 4.8 11.3 0.00 0.00 0.00 67 1005.1
20260505212517 30 180 3.2 8.0 0.00 0.00 0.00 67 1005.2
20260505211517 30 203 4.8 11.3 0.00 0.00 0.00 66 1005.2
20260505210517 30 248 1.6 4.8 0.00 0.00 0.00 67 1005.3
20260505205517 30 225 6.4 14.5 0.00 0.00 0.00 66 1005.5
20260505204517 29 203 3.2 6.4 0.00 0.00 0.00 66 1005.6
20260505203517 30 135 3.2 6.4 0.00 0.00 0.00 66 1005.7
20260505202517 29 135 6.4 12.9 0.00 0.00 0.00 66 1005.8
20260505201517 29 203 6.4 14.5 0.00 0.00 0.00 69 1005.9
20260505200517 29 225 6.4 16.1 0.00 0.00 0.00 68 1005.9
20260505195537 28 203 3.2 8.0 0.00 0.00 0.00 68 1005.9
20260505194517 28 135 6.4 11.3 0.00 0.00 0.00 70 1006.0
20260505193517 28 180 4.8 8.0 0.00 0.00 0.00 71 1005.9
20260505192517 28 225 6.4 17.7 0.00 0.00 0.00 70 1006.0
20260505191517 27 158 3.2 6.4 0.00 0.00 0.00 72 1006.0
20260505190517 27 203 11.3 19.3 0.00 0.00 0.00 71 1006.2
20260505185517 27 203 4.8 9.7 0.00 0.00 0.00 73 1006.3
20260505184517 27 180 4.8 9.7 0.00 0.00 0.00 73 1006.3
20260505183516 27 158 3.2 4.8 0.00 0.00 0.00 74 1006.3
20260505182517 27 225 3.2 6.4 0.00 0.00 0.00 73 1006.4
20260505181518 26 225 3.2 4.8 0.00 0.00 0.00 74 1006.5
20260505180517 26 248 6.4 9.7 0.00 0.00 0.00 74 1006.6
20260505175517 27 203 6.4 12.9 0.00 0.00 0.00 73 1006.5
20260505174517 27 180 6.4 11.3 0.00 0.00 0.00 72 1006.7
20260505173517 26 180 6.4 12.9 0.00 0.00 0.00 73 1006.5
20260505172537 26 180 3.2 4.8 0.00 0.00 0.00 75 1006.5
20260505171517 26 203 3.2 6.4 0.00 0.00 0.00 74 1006.7
20260505170517 26 248 3.2 6.4 0.00 0.00 0.00 76 1006.8
20260505165517 26 180 9.7 17.7 0.00 0.00 0.00 74 1006.7
20260505164516 25 180 4.8 8.0 0.00 0.00 0.00 75 1006.7
20260505163517 26 225 6.4 9.7 0.00 0.00 0.00 76 1006.5
20260505162517 25 225 11.3 22.5 0.00 0.00 0.00 75 1006.4
20260505161517 25 135 6.4 9.7 0.00 0.00 0.00 76 1006.4
20260505160517 25 180 4.8 8.0 0.00 0.00 0.00 79 1006.3
20260505152537 23 203 6.4 11.3 0.00 0.00 0.00 80 1006.5
20260505151516 23 203 3.2 4.8 0.00 0.00 0.00 81 1006.7
20260505150516 23 180 6.4 11.3 0.00 0.00 0.00 81 1006.6
20260505140517 22 180 3.2 4.8 0.00 0.00 0.00 83 1006.4
20260505124516 22 203 3.2 4.8 0.00 0.00 0.00 84 1006.0
20260505123516 22 203 6.4 14.5 0.00 0.00 0.00 84 1005.9
20260505122516 22 180 3.2 6.4 0.00 0.00 0.00 84 1005.8
20260505121516 21 180 4.8 11.3 0.00 0.00 0.00 84 1005.9
20260505120517 21 270 4.8 8.0 0.00 0.00 0.00 84 1005.7
20260505115516 21 203 3.2 6.4 0.00 0.00 0.00 85 1005.7
20260505114536 21 180 6.4 12.9 0.00 0.00 0.00 85 1005.6
20260505113536 21 158 3.2 4.8 0.00 0.00 0.00 84 1005.5